Showing default

IRIS-F3, 62619

Orbit data source: Space-Track

IRIS-F3, 62619 is a payload satellite owned by NCKU (TW) in SSO that was launched on Tue, 14 Jan 2025 UTC via an FALCON 9 launch vehicle from the Air Force Western Test Range (AFWTR). Payload-class satellites include a variety of spacecraft equipped with specific instruments for various scientific and technological missions. These include communications satellites like Starlink; space stations such as the ISS; scientific satellites like the Hubble; Earth observation satellites from companies like Planet Labs, Umbra, and HawkEye 360; GPS; miniature CubeSats for education and research; and military/defense satellites.

Loading next visibility...
Identifier
62619, 2025-009L
Orbit
SSO
Country
Flag of TWTW / TWN
Related business
Manufacturer
NCKU
Mission
Operational Amateur Technology
Bus & Motor
CUBESAT 3U, Unknown motor
Mass
4 kg wet, 4 kg dry
Launch date (UTC)
2025-01-14 (1 year ago)
Launch vehicle
FALCON 9
Launch site
Air Force Western Test Range (AFWTR)
Object type
Payload
Rocket body
Debris
Shape & HBR
Box, 0.3 m
Radar Cross Section
0.035 m², Medium (>0.1 m² and < 1m²)

Expand to show TLE details & history
Last TLE update: 9 hours ago

TLE from 9 hours ago
0 IRIS-F3
1 62619U 25009L   26126.17536746  .00005549  00000-0  21505-3 0  9995
2 62619  97.4041 207.3599 0008217 109.0100 251.2030 15.26527322 72417
Epoch: 2026-05-06T04:12Z
TLE epoch observation values (Epoch: 2026-05-06T04:12:31.748Z)
Latitude
0.00001°
Longitude
-79.81202°
Altitude
491.124 km
Speed
7.618 km/s
True Right ascension
13h 49m 26s
True Declination
0° 00' 00"
Sunlit
Object was in full shadow at epoch
Visualization orbit readout
Latitude
Unknown
Longitude
Unknown
Altitude
Unknown
Speed
Unknown
Apparent Right ascension
Unknown
Apparent Declination
Unknown
Sunlit
N/A
Visualization observer readout
Local Sidereal Time
21:22:25
Azimuth
Unknown
Elevation
Unknown
Doppler factor
Unknown
Orbital elements
Apogee altitude
488.798 km
Perigee altitude
477.522 km
Semi-major axis
6,861.297 km
Eccentricity
0.00082
Inclination
97.4041°
RAAN
207.3599°
Arg. of periapsis
109.01°
True anomaly
251.11389°
Mean anomaly
251.203°
Eccentric anomaly
251.15844°
Mean motion
3.81886 °/min
Orbital period
94.27 mins
BSTAR
0.00021505
Loading maneuver chart data...
Computing Atmospheric mass density...
Loading historical data...
Loading historical data...
Loading historical data...
Loading historical data...
Loading historical data...
Loading historical data...
Loading historical data...

Documentation

Showing up to 5 results
|